"startDT [UTC]","vpos","CH4 [ppm]","stdev(CH4) [ppm]","CO2 [ppm]","stdev(CO2) [ppm]","H2O_reported [%]","stdev(H2O_reported)","CavityPressure [torr]","CavityTemp [C]","OutletValve","CH4_dry [ppm]","CO2_dry [ppm]","DasTemp [C]","EtalonTemp [C]","WarmBoxTemp [C]","MPVPosition","T_ECpre [C]","T_EC1 [C]","T_EC2 [C]","p_inlet [hPa]","p_in [hPa]","p_out [hPa]","T_inlet [C]","RH_inlet [%]","dwpt_inlet [C]","T_vent [C]","RH_vent [%]","dwpt_vent [C]","flow_vent [l min-1]","flow_inlet [l min-1]","dwpt_sample [C]","T_room [C]"
2015-05-23 00:00:00,0.0,1.90409,0.00032,404.767,0.138,0.3609,0.0023,139.997,45.000,34093.31481,1.91090,406.537,31.945,45.069,45.000,0.00,0.09,-272.73,-272.78,1,958,-0,19.7,11.8,-10.7,19.7,11.9,-10.6,5.73,1.96,-10.4,24.8
2015-05-23 00:01:00,0.0,1.90421,0.00036,404.261,0.136,0.3644,0.0022,139.998,45.000,34092.09790,1.91112,406.068,31.944,45.069,45.000,0.00,0.09,-272.72,-272.78,2,957,-0,19.7,11.9,-10.6,19.7,12.0,-10.5,5.73,1.89,-10.4,24.8
2015-05-23 00:02:00,0.0,1.90442,0.00046,404.383,0.207,0.3666,0.0019,139.995,45.000,34093.34546,1.91136,406.171,31.949,45.069,45.000,0.00,0.09,-272.72,-272.77,2,958,-0,19.7,12.0,-10.5,19.7,12.1,-10.4,5.73,2.02,-10.4,24.8
2015-05-23 00:03:00,0.0,1.90418,0.00029,404.413,0.121,0.3669,0.0015,139.999,45.000,34094.16479,1.91110,406.212,31.992,45.069,45.000,0.00,0.09,-272.71,-272.77,3,956,-0,19.7,12.0,-10.5,19.7,12.1,-10.4,5.73,2.04,-10.4,24.8
2015-05-23 00:04:00,0.0,1.90407,0.00028,404.077,0.248,0.3652,0.0019,139.996,45.000,34090.73866,1.91098,405.889,32.000,45.068,45.000,0.00,0.09,-272.73,-272.78,2,959,-0,19.7,11.9,-10.5,19.7,12.1,-10.4,5.73,1.89,-10.3,24.8
2015-05-23 00:05:00,0.0,1.90428,0.00024,403.931,0.034,0.3649,0.0013,140.000,45.000,34091.67447,1.91119,405.722,32.000,45.068,45.000,0.00,0.09,-272.72,-272.78,2,956,-0,19.7,11.9,-10.5,19.7,12.1,-10.4,5.73,1.96,-10.4,24.8
2015-05-23 00:06:00,0.0,1.90402,0.00036,404.265,0.080,0.3656,0.0020,140.000,45.000,34093.13679,1.91096,406.056,32.000,45.068,45.000,0.00,0.09,-272.71,-272.77,3,957,-0,19.7,11.9,-10.6,19.7,12.1,-10.4,5.73,2.06,-10.3,24.8
2015-05-23 00:07:00,0.0,1.90365,0.00054,403.961,0.131,0.3674,0.0016,140.000,45.000,34092.74671,1.91060,405.764,31.996,45.068,45.000,0.00,0.09,-272.72,-272.79,2,956,-0,19.7,12.0,-10.5,19.7,12.1,-10.4,5.73,1.95,-10.3,24.8
2015-05-23 00:08:00,0.0,1.90384,0.00026,403.944,0.129,0.3683,0.0020,139.996,45.000,34091.46351,1.91082,405.758,31.992,45.068,45.000,0.00,0.09,-272.72,-272.78,2,957,-0,19.7,12.0,-10.4,19.7,12.2,-10.3,5.73,1.89,-10.3,24.9
2015-05-23 00:09:00,0.0,1.90378,0.00036,403.972,0.077,0.3675,0.0014,139.996,45.000,34091.42922,1.91074,405.775,31.998,45.069,45.000,0.00,0.09,-272.71,-272.77,1,957,-0,19.7,12.0,-10.5,19.7,12.2,-10.3,5.73,2.05,-10.3,24.9
2015-05-23 00:10:00,0.0,1.90389,0.00034,404.216,0.081,0.3682,0.0024,140.000,45.000,34090.77411,1.91087,406.025,31.997,45.069,45.000,0.00,0.09,-272.72,-272.78,3,956,-0,19.7,12.1,-10.4,19.7,12.2,-10.3,5.73,2.01,-10.3,24.8
2015-05-23 00:11:00,0.0,1.90372,0.00034,404.199,0.097,0.3704,0.0018,140.002,45.000,34091.19539,1.91075,406.012,32.004,45.069,45.000,0.00,0.09,-272.72,-272.79,3,957,-0,19.7,12.1,-10.4,19.7,12.2,-10.3,5.73,1.89,-10.3,24.8
2015-05-23 00:12:00,0.0,1.90357,0.00035,404.346,0.077,0.3665,0.0017,140.003,45.000,34093.21816,1.91052,406.141,32.001,45.069,45.000,0.00,0.09,-272.73,-272.78,3,955,-0,19.7,12.0,-10.5,19.7,12.2,-10.3,5.73,1.99,-10.3,24.8
2015-05-23 00:13:00,0.0,1.90358,0.00037,404.258,0.112,0.3693,0.0013,140.002,45.000,34093.40716,1.91056,406.080,32.001,45.068,45.000,0.00,0.09,-272.73,-272.77,1,958,-0,19.8,12.0,-10.4,19.7,12.1,-10.3,5.73,2.05,-10.3,24.9
2015-05-23 00:14:00,0.0,1.90349,0.00045,404.089,0.242,0.3688,0.0015,140.000,45.000,34094.67815,1.91045,405.910,32.000,45.069,45.000,0.00,0.09,-272.72,-272.78,3,956,-0,19.7,12.1,-10.4,19.7,12.2,-10.3,5.73,1.91,-10.3,24.9
2015-05-23 00:15:00,0.0,1.90356,0.00038,404.163,0.132,0.3687,0.0019,140.001,45.000,34093.55349,1.91058,405.968,32.005,45.069,45.000,0.00,0.09,-272.72,-272.78,2,957,-0,19.8,12.0,-10.4,19.7,12.2,-10.3,5.73,1.94,-10.3,24.9
2015-05-23 00:16:00,0.0,1.90356,0.00037,404.489,0.164,0.3676,0.0010,139.994,45.000,34091.81849,1.91048,406.285,32.006,45.069,45.000,0.00,0.09,-272.72,-272.77,3,955,-0,19.8,12.0,-10.5,19.7,12.1,-10.3,5.73,2.06,-10.3,24.9
2015-05-23 00:17:00,0.0,1.90393,0.00041,404.418,0.075,0.3701,0.0027,140.000,45.000,34093.42728,1.91100,406.235,32.003,45.069,45.000,0.00,0.09,-272.71,-272.78,2,958,-0,19.8,12.1,-10.3,19.7,12.2,-10.3,5.73,1.95,-10.3,24.9
2015-05-23 00:18:00,0.0,1.90381,0.00038,404.177,0.402,0.3729,0.0021,139.997,45.000,34091.98638,1.91081,406.029,32.003,45.069,45.000,0.00,0.09,-272.72,-272.78,2,956,-0,19.8,12.2,-10.3,19.7,12.3,-10.2,5.73,1.90,-10.3,24.8
2015-05-23 00:19:00,0.0,1.90358,0.00050,403.902,0.129,0.3727,0.0014,140.000,45.000,34092.34258,1.91071,405.720,32.007,45.068,45.000,0.00,0.09,-272.72,-272.78,2,958,-0,19.8,12.2,-10.3,19.7,12.3,-10.2,5.73,2.04,-10.3,24.9
2015-05-23 00:20:00,0.0,1.90359,0.00031,404.524,0.316,0.3688,0.0015,139.992,45.000,34091.75805,1.91053,406.339,32.000,45.069,45.000,0.00,0.09,-272.72,-272.78,2,956,-0,19.8,12.0,-10.4,19.7,12.2,-10.2,5.73,2.02,-10.3,24.9
2015-05-23 00:21:00,0.0,1.90363,0.00038,404.081,0.106,0.3702,0.0009,139.996,45.000,34092.80904,1.91062,405.896,32.000,45.069,45.000,0.00,0.09,-272.72,-272.78,2,957,-0,19.8,12.0,-10.4,19.7,12.2,-10.3,5.73,1.88,-10.3,24.9
2015-05-23 00:22:00,0.0,1.90353,0.00046,404.239,0.255,0.3701,0.0013,140.004,45.000,34096.08432,1.91056,406.071,32.000,45.069,45.000,0.00,0.09,-272.72,-272.78,2,955,-0,19.8,12.0,-10.4,19.7,12.2,-10.3,5.73,2.00,-10.3,24.9
2015-05-23 00:23:00,0.0,1.90365,0.00042,404.081,0.122,0.3719,0.0015,139.996,45.000,34092.06112,1.91070,405.899,32.001,45.069,45.000,0.00,0.09,-272.72,-272.77,2,957,-0,19.8,12.1,-10.3,19.8,12.2,-10.2,5.73,2.04,-10.3,24.9
2015-05-23 00:24:00,0.0,1.90335,0.00043,404.058,0.073,0.3696,0.0023,139.998,45.000,34095.72983,1.91031,405.871,32.000,45.069,45.000,0.00,0.09,-272.71,-272.78,2,956,-0,19.8,12.0,-10.4,19.8,12.2,-10.3,5.73,1.92,-10.3,24.9
2015-05-23 00:25:00,0.0,1.90346,0.00033,403.985,0.108,0.3708,0.0027,140.001,45.000,34097.82471,1.91048,405.806,32.001,45.069,45.000,0.00,0.09,-272.73,-272.78,2,958,-0,19.8,12.0,-10.4,19.8,12.2,-10.3,5.73,1.94,-10.3,24.9
2015-05-23 00:26:00,0.0,1.90356,0.00038,404.251,0.072,0.3712,0.0018,139.999,45.000,34096.19529,1.91061,406.072,32.001,45.069,45.000,0.00,0.09,-272.72,-272.78,2,956,-0,19.8,12.1,-10.3,19.8,12.2,-10.2,5.73,2.07,-10.3,24.9
2015-05-23 00:27:00,0.0,1.90343,0.00046,403.670,0.232,0.3725,0.0016,139.998,45.000,34097.57294,1.91050,405.523,32.000,45.069,45.000,0.00,0.09,-272.72,-272.78,3,957,-0,19.8,12.1,-10.3,19.8,12.2,-10.2,5.73,1.94,-10.3,24.9
2015-05-23 00:28:00,0.0,1.90371,0.00032,403.570,0.077,0.3705,0.0022,139.996,45.000,34096.51069,1.91071,405.381,32.000,45.069,45.000,0.00,0.09,-272.72,-272.78,2,957,-0,19.8,12.1,-10.4,19.8,12.2,-10.2,5.73,1.91,-10.3,24.9
2015-05-23 00:29:00,0.0,1.90353,0.00046,403.757,0.081,0.3666,0.0017,140.004,45.000,34099.51066,1.91044,405.548,32.000,45.069,45.000,0.00,0.09,-272.72,-272.77,2,957,-0,19.8,11.9,-10.5,19.8,12.1,-10.3,5.73,2.03,-10.3,24.9
2015-05-23 00:30:00,0.0,1.90347,0.00045,403.884,0.079,0.3687,0.0032,139.997,45.000,34095.75128,1.91045,405.687,32.000,45.068,45.000,0.00,0.09,-272.72,-272.76,1,957,-0,19.8,12.0,-10.4,19.8,12.1,-10.3,5.73,2.02,-10.3,24.9
2015-05-23 00:31:00,0.0,1.90360,0.00020,404.027,0.063,0.3714,0.0015,139.993,45.000,34098.22178,1.91065,405.852,32.000,45.068,45.000,0.00,0.09,-272.72,-272.78,3,957,-0,19.8,12.1,-10.3,19.8,12.2,-10.2,5.73,1.88,-10.3,24.9
2015-05-23 00:32:00,0.0,1.90367,0.00046,403.978,0.149,0.3734,0.0020,140.006,45.000,34100.14876,1.91078,405.819,32.000,45.069,45.000,0.00,0.09,-272.73,-272.78,2,957,-0,19.8,12.1,-10.3,19.8,12.3,-10.2,5.73,1.98,-10.3,25.0
2015-05-23 00:33:00,0.0,1.90357,0.00023,403.819,0.065,0.3727,0.0027,140.007,45.000,34102.35249,1.91061,405.645,31.997,45.069,45.000,0.00,0.09,-272.71,-272.77,2,956,-0,19.8,12.1,-10.3,19.8,12.2,-10.2,5.73,2.06,-10.2,25.0
2015-05-23 00:34:00,0.0,1.90322,0.00034,404.141,0.139,0.3726,0.0016,139.999,45.000,34104.64646,1.91027,405.956,31.995,45.068,45.000,0.00,0.09,-272.72,-272.77,1,959,-0,19.8,12.1,-10.3,19.8,12.2,-10.2,5.73,1.92,-10.3,24.9
2015-05-23 00:35:00,0.0,1.90336,0.00035,404.200,0.103,0.3749,0.0019,140.001,45.000,34103.16074,1.91050,406.051,31.995,45.069,45.000,0.00,0.09,-272.72,-272.78,2,957,-0,19.8,12.2,-10.2,19.8,12.3,-10.1,5.73,1.92,-10.2,24.9
2015-05-23 00:36:00,0.0,1.90324,0.00049,403.753,0.120,0.3774,0.0020,139.997,45.000,34101.86135,1.91037,405.612,31.998,45.069,45.000,0.00,0.09,-272.72,-272.78,2,958,-0,19.8,12.3,-10.1,19.8,12.4,-10.0,5.73,2.06,-10.2,24.9
2015-05-23 00:37:00,0.0,1.90323,0.00031,403.741,0.096,0.3777,0.0021,140.005,45.000,34104.96770,1.91042,405.601,31.995,45.069,45.000,0.00,0.09,-272.72,-272.78,2,956,-0,19.8,12.3,-10.1,19.8,12.4,-10.0,5.73,2.00,-10.2,25.0
2015-05-23 00:38:00,0.0,1.90354,0.00043,403.713,0.158,0.3745,0.0023,140.008,45.000,34103.52866,1.91059,405.545,32.000,45.069,45.000,0.00,0.09,-272.73,-272.79,2,959,-0,19.9,12.2,-10.2,19.8,12.4,-10.0,5.73,1.88,-10.2,24.9
2015-05-23 00:39:00,0.0,1.90349,0.00034,403.880,0.095,0.3732,0.0015,140.001,45.000,34101.79582,1.91060,405.709,32.000,45.069,45.000,0.00,0.09,-272.72,-272.78,2,957,-0,19.9,12.1,-10.2,19.8,12.3,-10.1,5.73,2.02,-10.2,24.9
2015-05-23 00:40:00,0.0,1.90350,0.00049,403.802,0.093,0.3711,0.0020,139.999,45.000,34101.36409,1.91046,405.626,32.000,45.068,45.000,0.00,0.09,-272.72,-272.78,3,958,-0,19.9,12.0,-10.3,19.8,12.2,-10.2,5.73,2.03,-10.2,25.0
2015-05-23 00:41:00,0.0,1.90345,0.00040,403.597,0.076,0.3716,0.0021,140.000,45.000,34099.72996,1.91048,405.427,32.006,45.069,45.000,0.00,0.09,-272.72,-272.77,2,956,-0,19.9,12.1,-10.3,19.8,12.2,-10.2,5.73,1.92,-10.2,25.0
2015-05-23 00:42:00,0.0,1.90361,0.00043,403.603,0.090,0.3757,0.0011,139.998,45.000,34101.80331,1.91072,405.450,32.002,45.069,45.000,0.00,0.09,-272.72,-272.78,2,957,-0,19.9,12.2,-10.2,19.8,12.3,-10.1,5.73,1.94,-10.2,25.0
2015-05-23 00:43:00,0.0,1.90353,0.00036,403.379,0.030,0.3778,0.0018,139.996,45.000,34105.15977,1.91071,405.232,32.005,45.069,45.000,0.00,0.09,-272.71,-272.77,1,959,-0,19.9,12.2,-10.2,19.8,12.3,-10.0,5.73,2.07,-10.2,25.0
2015-05-23 00:44:00,0.0,1.90333,0.00041,403.363,0.023,0.3753,0.0018,140.002,45.000,34109.38043,1.91045,405.204,32.001,45.069,45.000,0.00,0.09,-272.72,-272.77,2,957,-0,19.9,12.1,-10.2,19.8,12.3,-10.1,5.73,1.98,-10.2,25.0
2015-05-23 00:45:00,0.0,1.90345,0.00028,403.452,0.076,0.3738,0.0018,140.003,45.000,34115.37699,1.91053,405.282,31.992,45.068,45.000,0.00,0.09,-272.72,-272.78,2,959,-0,19.9,12.1,-10.3,19.8,12.3,-10.1,5.73,1.90,-10.2,25.0
2015-05-23 00:46:00,0.0,1.90343,0.00035,403.397,0.047,0.3721,0.0014,140.001,45.000,34121.00555,1.91048,405.223,31.965,45.068,45.000,0.00,0.09,-272.72,-272.77,2,961,-0,19.9,12.0,-10.3,19.8,12.2,-10.2,5.73,1.95,-10.2,24.9
2015-05-23 00:47:00,0.0,1.90361,0.00033,403.457,0.053,0.3712,0.0013,140.002,45.000,34124.55745,1.91063,405.277,31.945,45.068,45.000,0.00,0.09,-272.71,-272.77,1,962,-1,19.9,11.9,-10.4,19.9,12.2,-10.2,5.73,2.03,-10.2,24.9
2015-05-23 00:48:00,0.0,1.90352,0.00041,403.585,0.118,0.3714,0.0017,140.002,45.000,34125.43324,1.91054,405.397,31.944,45.068,45.000,0.00,0.09,-272.72,-272.79,0,963,-1,19.9,11.9,-10.4,19.9,12.1,-10.2,5.73,2.02,-10.2,24.9
2015-05-23 00:49:00,0.0,1.90370,0.00028,403.672,0.104,0.3727,0.0021,140.000,45.000,34127.25922,1.91075,405.506,31.938,45.068,45.000,0.00,0.09,-272.72,-272.78,0,963,-0,20.0,11.9,-10.4,19.9,12.2,-10.2,5.73,1.96,-10.2,24.9
2015-05-23 00:50:00,0.0,1.90356,0.00039,403.511,0.076,0.3743,0.0018,140.002,45.000,34130.02668,1.91064,405.348,31.929,45.068,45.000,0.00,0.09,-272.70,-272.77,1,964,-1,20.0,12.0,-10.2,19.9,12.2,-10.1,5.73,1.92,-10.2,24.9
2015-05-23 00:51:00,0.0,1.90349,0.00036,403.411,0.030,0.3725,0.0020,140.004,45.000,34132.90180,1.91055,405.238,31.906,45.068,45.000,0.00,0.09,-272.72,-272.78,1,964,-1,20.0,12.0,-10.3,19.9,12.2,-10.1,5.73,1.96,-10.2,24.9
2015-05-23 00:52:00,0.0,1.90348,0.00027,403.440,0.032,0.3713,0.0017,139.999,45.000,34132.04839,1.91054,405.262,31.898,45.068,45.000,0.00,0.09,-272.73,-272.79,1,964,-1,20.0,11.9,-10.4,19.9,12.2,-10.2,5.73,2.02,-10.1,24.9
2015-05-23 00:53:00,0.0,1.90335,0.00024,403.534,0.099,0.3746,0.0021,140.000,45.000,34129.23607,1.91042,405.367,31.891,45.068,45.000,0.00,0.09,-272.72,-272.77,0,964,-1,20.0,12.0,-10.3,19.9,12.2,-10.2,5.73,2.05,-10.2,24.9
2015-05-23 00:54:00,0.0,1.90352,0.00037,403.681,0.186,0.3766,0.0017,139.999,45.000,34128.92091,1.91064,405.521,31.911,45.068,45.000,0.00,0.09,-272.72,-272.78,1,963,-1,20.0,12.1,-10.2,19.9,12.3,-10.1,5.73,1.99,-10.2,24.9
2015-05-23 00:55:00,0.0,1.90356,0.00023,403.854,0.062,0.3773,0.0019,139.999,45.000,34126.35565,1.91071,405.706,31.938,45.068,45.000,0.00,0.09,-272.72,-272.78,1,962,-1,19.9,12.1,-10.2,19.9,12.3,-10.0,5.73,1.91,-10.1,25.0
2015-05-23 00:56:00,0.0,1.90359,0.00030,403.688,0.281,0.3782,0.0022,140.000,45.000,34123.77691,1.91074,405.556,31.950,45.068,45.000,0.00,0.09,-272.72,-272.78,1,962,-1,19.9,12.2,-10.2,19.9,12.3,-10.0,5.73,1.97,-10.1,25.0
2015-05-23 00:57:00,0.0,1.90375,0.00043,403.340,0.044,0.3807,0.0018,140.001,45.000,34119.38776,1.91095,405.208,31.992,45.068,45.000,0.00,0.09,-272.72,-272.76,1,963,-1,19.9,12.2,-10.1,19.9,12.4,-9.9,5.73,2.05,-10.1,25.0
2015-05-23 00:58:00,0.0,1.90393,0.00031,403.744,0.313,0.3766,0.0021,140.007,45.000,34120.87276,1.91108,405.573,32.000,45.068,45.000,0.00,0.09,-272.72,-272.78,2,960,-1,19.9,12.1,-10.2,19.9,12.3,-10.0,5.73,1.99,-10.1,25.1
2015-05-23 00:59:00,0.0,1.90405,0.00040,403.919,0.101,0.3774,0.0014,140.001,45.000,34121.64410,1.91113,405.777,32.015,45.068,45.000,0.00,0.09,-272.72,-272.78,2,961,-1,19.9,12.1,-10.2,19.9,12.3,-10.0,5.73,1.90,-10.1,25.1
2015-05-23 01:00:00,0.0,1.90391,0.00045,403.572,0.083,0.3803,0.0012,140.001,45.000,34120.67185,1.91115,405.447,32.053,45.068,45.000,0.00,0.09,-272.72,-272.77,1,962,-1,19.9,12.2,-10.1,19.9,12.4,-10.0,5.73,1.97,-10.1,25.0
2015-05-23 01:01:00,0.0,1.90382,0.00048,403.611,0.137,0.3783,0.0018,140.003,45.000,34119.27856,1.91097,405.465,32.060,45.068,45.000,0.00,0.09,-272.72,-272.77,1,961,-1,19.9,12.2,-10.1,19.9,12.4,-10.0,5.73,2.07,-10.1,25.1
2015-05-23 01:02:00,0.0,1.90395,0.00032,403.592,0.133,0.3756,0.0023,139.998,45.000,34118.04751,1.91108,405.438,32.052,45.068,45.000,0.00,0.09,-272.72,-272.78,2,961,-1,20.0,12.1,-10.2,19.9,12.3,-10.0,5.73,1.99,-10.1,25.1
2015-05-23 01:03:00,0.0,1.90409,0.00027,403.708,0.162,0.3763,0.0012,140.001,45.000,34119.27635,1.91119,405.553,32.062,45.068,45.000,0.00,0.09,-272.71,-272.78,2,961,-1,20.0,12.1,-10.2,19.9,12.3,-10.1,5.73,1.90,-10.1,25.0
2015-05-23 01:04:00,0.0,1.90369,0.00056,403.436,0.077,0.3787,0.0033,139.999,45.000,34120.23134,1.91090,405.298,32.063,45.068,45.000,0.00,0.09,-272.72,-272.77,1,961,-1,20.0,12.2,-10.1,19.9,12.3,-10.0,5.73,1.97,-10.1,25.1
2015-05-23 01:05:00,0.0,1.90386,0.00035,403.393,0.038,0.3813,0.0025,140.003,45.000,34119.87152,1.91107,405.260,32.068,45.069,45.000,0.00,0.09,-272.73,-272.78,1,959,-1,20.0,12.3,-10.0,19.9,12.4,-9.9,5.73,2.06,-10.1,25.1
2015-05-23 01:06:00,0.0,1.90373,0.00046,403.410,0.043,0.3759,0.0017,139.995,45.000,34118.29860,1.91085,405.257,32.070,45.069,45.000,0.00,0.09,-272.72,-272.78,2,960,-1,20.0,12.1,-10.2,19.9,12.4,-9.9,5.73,1.96,-10.1,25.1
2015-05-23 01:07:00,0.0,1.90391,0.00025,403.752,0.262,0.3778,0.0019,140.003,45.000,34121.35716,1.91107,405.587,32.086,45.069,45.000,0.00,0.09,-272.71,-272.78,1,961,-1,20.0,12.1,-10.1,19.9,12.3,-10.0,5.73,1.90,-10.1,25.1
2015-05-23 01:08:00,0.0,1.90376,0.00035,403.878,0.205,0.3781,0.0019,140.002,45.000,34119.93836,1.91091,405.744,32.123,45.069,45.000,0.00,0.09,-272.73,-272.78,2,959,-1,20.0,12.2,-10.1,19.9,12.3,-10.0,5.73,2.00,-10.1,25.1
2015-05-23 01:09:00,0.0,1.90368,0.00038,404.019,0.130,0.3835,0.0026,139.997,45.000,34120.23144,1.91095,405.888,32.124,45.069,45.000,0.00,0.09,-272.73,-272.78,2,960,-1,20.0,12.3,-9.9,19.9,12.5,-9.8,5.73,2.05,-10.1,25.1
2015-05-23 01:10:00,0.0,1.90380,0.00043,403.798,0.278,0.3852,0.0018,139.998,45.000,34118.72185,1.91112,405.712,32.125,45.069,45.000,0.00,0.09,-272.72,-272.76,1,961,-1,20.0,12.4,-9.9,19.9,12.6,-9.8,5.73,1.94,-10.1,25.1
2015-05-23 01:11:00,0.0,1.90357,0.00034,403.601,0.100,0.3844,0.0020,139.997,45.000,34119.58674,1.91086,405.479,32.128,45.068,45.000,0.00,0.09,-272.72,-272.78,1,959,-1,20.0,12.4,-9.9,19.9,12.5,-9.8,5.73,1.91,-10.1,25.1
2015-05-23 01:12:00,0.0,1.90374,0.00034,403.929,0.076,0.3826,0.0013,139.995,45.000,34118.91115,1.91097,405.802,32.126,45.068,45.000,0.00,0.09,-272.72,-272.78,2,960,-1,20.0,12.3,-9.9,20.0,12.5,-9.8,5.73,2.01,-10.1,25.1
2015-05-23 01:13:00,0.0,1.90416,0.00038,404.141,0.076,0.3796,0.0022,140.002,45.000,34121.30948,1.91134,405.997,32.125,45.068,45.000,0.00,0.09,-272.71,-272.77,1,962,-1,20.0,12.2,-10.0,20.0,12.4,-9.8,5.73,2.04,-10.1,25.1
2015-05-23 01:14:00,0.0,1.90399,0.00052,403.738,0.158,0.3802,0.0024,140.003,45.000,34120.27544,1.91127,405.617,32.126,45.068,45.000,0.00,0.09,-272.71,-272.77,2,958,-1,20.0,12.2,-10.0,20.0,12.4,-9.9,5.73,1.93,-10.0,25.1
2015-05-23 01:15:00,0.0,1.90383,0.00033,403.764,0.067,0.3832,0.0018,140.004,45.000,34118.06549,1.91103,405.646,32.125,45.068,45.000,0.00,0.09,-272.72,-272.78,2,959,-1,20.0,12.3,-9.9,20.0,12.5,-9.8,5.73,1.92,-10.1,25.1
2015-05-23 01:16:00,0.0,1.90380,0.00030,403.643,0.104,0.3814,0.0031,139.995,45.000,34116.92250,1.91102,405.520,32.128,45.068,45.000,0.00,0.09,-272.73,-272.78,1,961,-1,20.1,12.2,-10.0,20.0,12.5,-9.8,5.73,2.06,-10.0,25.1
2015-05-23 01:17:00,0.0,1.90390,0.00019,403.764,0.133,0.3796,0.0021,139.996,45.000,34119.46522,1.91107,405.617,32.123,45.069,45.000,0.00,0.09,-272.71,-272.77,2,959,-1,20.0,12.2,-10.1,20.0,12.4,-9.9,5.73,2.00,-10.0,25.1
2015-05-23 01:18:00,0.0,1.90395,0.00042,403.772,0.164,0.3791,0.0025,139.994,45.000,34119.62698,1.91116,405.633,32.111,45.068,45.000,0.00,0.09,-272.72,-272.78,2,961,-1,20.1,12.1,-10.1,20.0,12.3,-9.9,5.73,1.89,-10.0,25.1
2015-05-23 01:19:00,0.0,1.90389,0.00041,404.449,0.262,0.3780,0.0021,140.002,45.000,34127.17617,1.91099,406.289,32.111,45.068,45.000,0.00,0.09,-272.72,-272.78,1,962,-1,20.1,12.1,-10.1,20.0,12.3,-10.0,5.73,1.95,-10.0,25.1
2015-05-23 01:20:00,0.0,1.90417,0.00033,404.549,0.160,0.3787,0.0016,140.000,45.000,34128.39819,1.91140,406.425,32.095,45.068,45.000,0.00,0.09,-272.71,-272.78,0,961,-1,20.1,12.1,-10.1,20.0,12.3,-10.0,5.73,2.05,-10.0,25.0
2015-05-23 01:21:00,0.0,1.90374,0.00043,403.940,0.166,0.3838,0.0019,139.996,45.000,34130.51557,1.91103,405.839,32.063,45.068,45.000,0.00,0.09,-272.71,-272.78,0,962,-1,20.1,12.2,-10.0,20.0,12.4,-9.8,5.73,2.04,-10.0,25.0
2015-05-23 01:22:00,0.0,1.90392,0.00036,404.076,0.266,0.3854,0.0027,139.999,45.000,34132.79496,1.91116,405.955,32.053,45.068,45.000,0.00,0.09,-272.73,-272.78,1,963,-1,20.1,12.3,-9.9,20.0,12.5,-9.7,5.73,1.97,-10.0,25.0
2015-05-23 01:23:00,0.0,1.90424,0.00031,404.306,0.096,0.3836,0.0025,140.000,45.000,34134.05708,1.91148,406.190,32.015,45.068,45.000,0.00,0.09,-272.72,-272.77,1,962,-1,20.1,12.2,-10.0,20.0,12.5,-9.8,5.73,1.93,-10.0,25.0
2015-05-23 01:24:00,0.0,1.90386,0.00042,404.044,0.150,0.3875,0.0019,140.000,45.000,34136.71476,1.91124,405.945,32.000,45.068,45.000,0.00,0.09,-272.72,-272.77,0,964,-1,20.1,12.3,-9.8,20.0,12.5,-9.7,5.73,1.95,-10.0,25.0
2015-05-23 01:25:00,0.0,1.90369,0.00027,404.107,0.144,0.3905,0.0018,139.999,45.000,34137.89967,1.91110,406.038,31.998,45.068,45.000,0.00,0.09,-272.73,-272.78,0,965,-1,20.1,12.4,-9.7,20.0,12.7,-9.6,5.73,2.01,-10.0,25.0
2015-05-23 01:26:00,0.0,1.90373,0.00036,403.878,0.087,0.3923,0.0019,139.996,45.000,34136.07624,1.91115,405.805,31.962,45.068,45.000,0.00,0.09,-272.73,-272.77,0,965,-1,20.2,12.5,-9.6,20.0,12.7,-9.5,5.73,2.04,-10.0,25.0
2015-05-23 01:27:00,0.0,1.90348,0.00031,403.726,0.073,0.3944,0.0017,140.003,45.000,34139.61431,1.91096,405.667,31.960,45.069,45.000,0.00,0.09,-272.71,-272.76,-0,965,-1,20.1,12.5,-9.6,20.0,12.8,-9.5,5.73,2.02,-10.0,25.0
2015-05-23 01:28:00,0.0,1.90362,0.00028,403.762,0.195,0.3882,0.0031,140.004,45.000,34143.83639,1.91097,405.673,31.940,45.069,45.000,0.00,0.09,-272.71,-272.78,-0,967,-1,20.2,12.4,-9.8,20.0,12.7,-9.5,5.73,1.97,-10.0,25.0
2015-05-23 01:29:00,0.0,1.90342,0.00036,403.736,0.204,0.3828,0.0016,139.995,45.000,34143.05391,1.91068,405.605,31.938,45.069,45.000,0.00,0.09,-272.72,-272.78,0,967,-1,20.2,12.2,-10.0,20.0,12.5,-9.8,5.73,1.93,-10.0,25.1
2015-05-23 01:30:00,0.0,1.90376,0.00034,404.112,0.131,0.3817,0.0018,140.004,45.000,34145.18582,1.91100,405.985,31.938,45.068,45.000,0.00,0.09,-272.72,-272.77,0,967,-1,20.2,12.1,-10.0,20.0,12.4,-9.9,5.73,1.93,-10.0,25.0
2015-05-23 01:31:00,0.0,1.90392,0.00041,403.987,0.040,0.3864,0.0023,140.000,45.000,34143.36431,1.91121,405.882,31.931,45.068,45.000,0.00,0.09,-272.71,-272.77,1,966,-1,20.2,12.2,-9.9,20.0,12.5,-9.7,5.73,1.98,-10.0,25.1
2015-05-23 01:32:00,0.0,1.90343,0.00023,403.676,0.227,0.3896,0.0022,139.998,45.000,34144.81164,1.91083,405.603,31.911,45.068,45.000,0.00,0.09,-272.73,-272.78,1,965,-1,20.2,12.3,-9.8,20.0,12.6,-9.7,5.73,2.02,-10.0,25.1
2015-05-23 01:33:00,0.0,1.90355,0.00022,403.491,0.095,0.3834,0.0036,140.000,45.000,34143.64932,1.91083,405.371,31.901,45.068,45.000,0.00,0.09,-272.72,-272.78,1,965,-1,20.2,12.1,-10.0,20.0,12.5,-9.8,5.73,2.04,-10.0,25.1
2015-05-23 01:34:00,0.0,1.90345,0.00029,403.549,0.085,0.3776,0.0023,139.997,45.000,34142.32073,1.91060,405.405,31.937,45.069,45.000,0.00,0.09,-272.72,-272.78,1,965,-1,20.2,11.9,-10.2,20.0,12.2,-10.0,5.73,1.97,-9.9,25.1
2015-05-23 01:35:00,0.0,1.90362,0.00040,403.494,0.081,0.3744,0.0015,139.998,45.000,34142.36028,1.91069,405.335,31.956,45.069,45.000,0.00,0.09,-272.72,-272.77,1,965,-1,20.2,11.9,-10.3,20.0,12.2,-10.1,5.73,1.90,-10.0,25.2
2015-05-23 01:36:00,0.0,1.90337,0.00034,403.355,0.048,0.3794,0.0017,140.005,45.000,34143.39283,1.91053,405.214,31.986,45.069,45.000,0.00,0.09,-272.73,-272.78,-0,966,-1,20.2,12.0,-10.2,20.0,12.2,-10.0,5.73,1.97,-10.0,25.2
2015-05-23 01:37:00,0.0,1.90374,0.00039,403.388,0.092,0.3794,0.0013,140.001,45.000,34140.55382,1.91092,405.252,32.004,45.069,45.000,0.00,0.09,-272.72,-272.77,-0,964,-1,20.2,12.0,-10.1,20.1,12.2,-10.0,5.73,2.06,-9.9,25.2
2015-05-23 01:38:00,0.0,1.90346,0.00032,403.374,0.151,0.3764,0.0017,140.000,45.000,34143.11294,1.91058,405.216,32.020,45.069,45.000,0.00,0.09,-272.72,-272.77,1,963,-1,20.2,11.9,-10.2,20.1,12.2,-10.0,5.73,2.02,-9.9,25.2
2015-05-23 01:39:00,0.0,1.90341,0.00033,403.547,0.229,0.3817,0.0022,140.001,45.000,34145.20243,1.91067,405.403,32.061,45.068,45.000,0.00,0.09,-272.72,-272.77,1,963,-1,20.2,12.1,-10.0,20.1,12.3,-9.9,5.73,1.91,-9.9,25.2
2015-05-23 01:40:00,0.0,1.90323,0.00026,403.617,0.221,0.3849,0.0011,139.996,45.000,34143.15707,1.91054,405.524,32.073,45.068,45.000,0.00,0.09,-272.72,-272.77,1,964,-1,20.2,12.2,-9.9,20.1,12.4,-9.8,5.73,1.93,-9.9,25.2
2015-05-23 01:41:00,0.0,1.90334,0.00034,403.536,0.097,0.3850,0.0015,140.001,45.000,34144.27110,1.91063,405.418,32.105,45.068,45.000,0.00,0.09,-272.72,-272.77,0,964,-1,20.2,12.2,-9.9,20.1,12.4,-9.8,5.73,2.04,-9.9,25.3
2015-05-23 01:42:00,0.0,1.90320,0.00027,403.453,0.076,0.3830,0.0021,139.998,45.000,34142.11259,1.91045,405.335,32.125,45.068,45.000,0.00,0.09,-272.72,-272.78,0,962,-1,20.2,12.2,-9.9,20.1,12.4,-9.8,5.73,2.04,-9.9,25.2
2015-05-23 01:43:00,0.0,1.90342,0.00027,403.766,0.112,0.3853,0.0030,139.999,45.000,34142.66752,1.91069,405.647,32.126,45.068,45.000,0.00,0.09,-272.71,-272.78,1,962,-1,20.2,12.2,-9.9,20.1,12.4,-9.8,5.73,1.92,-9.9,25.3
2015-05-23 01:44:00,0.0,1.90346,0.00034,403.451,0.266,0.3909,0.0022,139.997,45.000,34140.31846,1.91084,405.385,32.125,45.068,45.000,0.00,0.09,-272.71,-272.77,1,963,-1,20.2,12.4,-9.7,20.1,12.6,-9.6,5.73,1.92,-9.9,25.2
2015-05-23 01:45:00,0.0,1.90341,0.00043,403.360,0.076,0.3870,0.0040,139.992,45.000,34139.61444,1.91077,405.253,32.121,45.068,45.000,0.00,0.09,-272.72,-272.78,1,964,-1,20.2,12.3,-9.8,20.1,12.6,-9.6,5.73,2.00,-9.9,25.2